Location: Mason-Dixon Star Party
(40.0361°N, 76.9958°W)
Time: 07:37:58
(UTC-04:00)

Daily predictions for brighter satellites

Satellite Brightness Start Highest point End
(mag) Time Altitude Azimuth Time Altitude Azimuth Time Altitude Azimuth
Cosmos 2333 Rocket 3.9 21:04:03 10° N 21:08:06 19° NE 21:12:09 10° E
Cosmos 2315 Rocket 4.5 21:03:52 10° N 21:09:45 43° ENE 21:15:36 10° SSE
Cosmos 2297 Rocket 4.0 21:12:28 10° ESE 21:13:26 10° E 21:14:25 10° E
H-2A R/B 3.9 21:12:21 10° S 21:15:59 43° W 21:19:37 10° NNW
Cosmos 2219 Rocket 3.5 21:11:27 10° N 21:16:09 27° NE 21:20:50 10° ESE
Hubble Space Telescope 2.8 21:15:59 10° S 21:17:24 11° SSE 21:18:49 10° SE
YAOGAN 11 4.4 21:14:49 10° S 21:19:07 72° WSW 21:23:32 10° NNW
OTV 4 1.6 21:17:39 10° SW 21:20:10 25° SSE 21:22:41 10° ESE
COSMOS 2428 3.0 21:14:57 10° NNW 21:20:33 56° ENE 21:26:08 10° SE
Cosmos 1726 3.6 21:18:20 10° NNE 21:21:25 23° ENE 21:24:30 10° SE
DELTA 2 R/B (1) 4.4 21:19:40 10° W 21:24:47 38° SSW 21:29:52 10° SE
Cosmos 1680 Rocket 3.7 21:22:31 10° NNW 21:27:46 75° WSW 21:33:01 10° S
Cosmos 1437 Rocket 4.1 21:25:18 10° NNW 21:28:55 39° W 21:32:33 10° SSW
Meteor 1-4 Rocket 4.2 21:27:11 10° NNE 21:30:05 21° ENE 21:32:34 12° ESE
Cosmos 2058 3.0 21:26:30 10° S 21:30:28 53° E 21:34:29 10° NNE
Cosmos 2151 3.0 21:27:06 10° S 21:31:17 86° W 21:35:31 10° N
Cosmos 405 4.2 21:33:17 10° NNW 21:36:45 42° W 21:40:09 10° SSW
NOSS 3-1 (A) 3.4 21:31:11 10° SSW 21:36:58 69° ESE 21:43:23 10° NE
Cosmos 1898 Rocket 3.6 21:33:24 10° S 21:38:25 55° ESE 21:43:31 10° NNE
Terra 4.0 21:37:08 10° E 21:38:36 11° ENE 21:40:05 10° NE
H-2A R/B 4.0 21:35:32 10° E 21:38:40 16° ENE 21:41:51 10° NNE
Cosmos 2237 4.2 21:36:19 10° NNW 21:42:05 88° ENE 21:47:32 11° SSE
Delta 2 Rocket 3.7 21:39:07 10° WSW 21:42:38 36° S 21:44:58 16° SE
Cosmos 1437 4.1 21:40:50 10° SSW 21:43:58 43° WNW 21:47:08 10° N
Nadezhda 2 Rocket 4.5 21:37:56 10° S 21:44:03 86° E 21:50:12 10° N
ALOS 4.5 21:40:59 10° SSW 21:44:40 23° W 21:48:24 10° NW
Aureole 3 4.3 21:40:08 10° S 21:46:32 82° W 21:51:34 10° N
MetOp-B 4.3 21:42:05 12° SSE 21:46:58 58° ENE 21:52:14 10° N
Cosmos 1939 Rocket 3.1 21:43:20 10° S 21:47:13 65° W 21:51:05 10° NNW
Cosmos 2219 3.8 21:43:04 10° SW 21:48:46 63° WNW 21:54:29 10° NNE
Tiangong 1 1.4 21:46:05 10° W 21:49:11 64° NNW 21:52:16 10° ENE
Nimbus 7 Rocket 4.4 21:43:49 10° NNE 21:49:43 88° ESE 21:55:35 10° SSW
SPOT 1/Viking Rocket 4.1 21:46:52 14° SE 21:50:54 43° ENE 21:55:46 10° N
Cosmos 2237 Rocket 3.2 21:47:11 10° N 21:52:22 34° ENE 21:56:27 15° ESE
OAO 2 Rocket 3.7 21:49:23 10° WSW 21:54:28 47° S 21:59:04 13° ESE
Cosmos 2150 Rocket 4.1 21:49:07 10° SSW 21:54:33 80° ESE 22:00:03 10° NNE
Cosmos 2333 4.2 21:51:54 10° NNW 21:57:41 88° ENE 22:02:25 16° SSE
CZ-4 SHROUD 3.1 21:55:57 17° SSE 21:58:13 87° ENE 22:01:22 10° NNW
Cosmos 2082 4.2 21:53:06 10° S 21:58:21 39° ESE 22:03:38 10° NE
ATLAS 2AS CENTAUR R/B 3.3 21:52:19 10° S 21:59:10 43° ESE 22:06:34 10° NE
Sich 1 3.0 21:54:54 10° S 21:59:16 69° E 22:03:39 10° NNE
Cosmos 2360 Rocket 3.7 21:56:11 10° NW 22:01:07 32° WSW 22:06:03 10° SSW
Cosmos 1626 3.5 22:02:07 19° ESE 22:03:08 22° E 22:06:04 10° NE
Cosmos 1271 Rocket 3.0 21:59:30 10° N 22:03:16 51° ENE 22:05:31 22° SE
ERS-1 Rocket 4.4 22:01:48 10° SSW 22:06:20 34° W 22:10:54 10° NNW
Cosmos 1633 Rocket 3.0 22:02:43 10° S 22:07:04 80° E 22:11:28 10° N
YAOGAN 6 2.5 22:04:58 21° SSE 22:07:14 71° ENE 22:10:50 10° N
Iridium 2 4.4 22:05:33 23° SE 22:07:24 37° E 22:10:59 10° NNE
ATLAS 3B R/B 3.8 22:01:52 10° NNW 22:08:10 33° NE 22:13:27 13° ESE
ERBS 2.3 22:05:16 10° SW 22:08:46 89° NW 22:12:16 10° NE
Envisat 3.8 22:08:47 10° S 22:13:40 48° W 22:18:36 10° NNW
Cosmos 2242 Rocket 3.6 22:09:40 10° N 22:14:11 75° E 22:17:06 22° SSE
CZ-4 R/B 4.0 22:10:50 10° NNE 22:15:38 52° E 22:18:51 19° S
CZ-4C R/B 4.2 22:16:15 24° ESE 22:17:19 29° ENE 22:20:22 10° N
Cosmos 1703 3.2 22:14:44 19° S 22:17:23 71° E 22:21:17 10° NNE
SL-14 R/B 3.9 22:15:04 10° SSW 22:18:58 57° W 22:22:56 10° N
USA 245 1.8 22:21:01 65° SE 22:21:16 81° ENE 22:23:31 10° N
Cosmos 220 Rocket 4.4 22:24:29 10° SSW 22:28:51 65° WNW 22:33:17 10° NNE
USA 32 4.0 22:23:44 10° N 22:29:01 89° ENE 22:32:30 22° S
Cosmos 2227 Rocket 2.1 22:24:28 10° SSW 22:30:06 77° ESE 22:35:47 10° NNE
Cosmos 1937 Rocket 3.8 22:27:17 10° SSW 22:32:28 66° WNW 22:37:39 10° NNE
Cosmos 1300 4.3 22:29:15 10° NNW 22:32:40 30° W 22:35:46 12° SSW
Cosmos 990 Rocket 4.0 22:33:12 10° SSW 22:38:20 82° WNW 22:43:31 10° NNE
DELTA 2 DEB (DPAF) 4.1 22:41:00 35° SSE 22:42:48 72° ENE 22:47:17 10° N
Cosmos 292 Rocket 4.5 22:38:48 10° NNW 22:43:21 47° WSW 22:46:00 23° SSW
SPOT 5 4.4 22:40:03 11° SSW 22:43:57 30° W 22:48:13 10° NW
ARGOS 3.3 22:44:45 25° S 22:47:58 68° WSW 22:53:20 10° NNW
SL-16 R/B 2.9 22:42:46 10° N 22:48:11 43° ENE 22:50:40 28° ESE
CZ-4B R/B 4.2 22:43:50 10° N 22:48:57 54° WNW 22:53:56 10° SSW
H-2A R/B 4.5 22:44:49 10° SW 22:49:52 39° SSE 23:18:31 10° E
Cosmos 2333 Rocket 2.4 22:47:12 10° NNW 22:52:55 69° WSW 22:55:43 31° S
Cosmos 1455 2.1 22:51:05 10° N 22:54:55 81° W 22:55:49 51° S
OTV 4 2.1 22:53:19 10° WSW 22:54:46 25° WSW 22:54:46 25° WSW
Cosmos 2297 Rocket 2.1 22:51:53 15° SSW 22:56:34 88° ESE 23:02:15 10° NNE
Cosmos 1726 4.4 22:53:50 10° NW 22:56:39 20° W 22:59:13 11° SW
Cosmos 1346 4.2 22:57:45 34° WSW 22:58:29 41° WNW 23:01:23 10° N
Landsat 7 3.8 22:57:59 39° S 22:59:47 81° WSW 23:04:34 10° NNW
Cosmos 2219 Rocket 3.0 22:54:59 10° NW 23:00:15 44° WSW 23:03:07 25° SSW
NOSS 2-3 (C) 4.2 23:00:19 42° SE 23:01:09 47° ESE 23:06:23 10° NE
Cosmos 1470 Rocket 4.2 22:59:12 22° SSW 23:01:46 51° W 23:06:00 10° N
Cosmos 1933 Rocket 4.2 23:00:00 22° SSW 23:02:41 53° W 23:07:04 10° N
Cosmos 44 Rocket 3.7 23:04:46 44° SE 23:05:33 48° ESE 23:10:34 10° NE
SL-08 RB Rocket 4.4 23:05:02 29° SSW 23:06:51 45° W 23:11:12 10° NNW
Cosmos 1703 Rocket 3.9 23:03:30 10° N 23:07:45 48° E 23:08:18 45° ESE
Lacrosse 4 Rocket 1.8 23:03:36 10° NNW 23:08:00 59° ENE 23:08:55 48° ESE
Nadezhda 1 Rocket 4.3 23:02:51 10° NNW 23:08:53 63° W 23:12:17 27° SSW
Cosmos 1269 Rocket 4.0 23:05:38 10° NNW 23:10:58 75° ENE 23:12:32 46° SE
Cosmos 1933 3.4 23:09:23 10° N 23:13:26 62° E 23:13:41 60° ESE
Terra 1.8 23:14:22 49° S 23:15:39 81° WSW 23:20:26 10° NNW
H-2A R/B 2.2 23:15:25 39° S 23:17:25 72° WSW 23:22:52 10° NNW
COSMOS 2455 2.8 23:13:45 10° NNW 23:19:50 87° ENE 23:21:50 45° SSE
NOSS 2-3 (D) 3.8 23:21:10 50° S 23:22:21 69° ESE 23:27:50 10° NE
Tiangong 1 2.2 23:22:58 10° WNW 23:25:23 42° NW 23:25:23 42° NW
Cosmos 1125 Rocket 3.7 23:23:43 30° SSW 23:26:21 73° WNW 23:31:41 10° NNE
Cosmos 1048 Rocket 4.0 23:21:45 10° NNW 23:27:09 83° ENE 23:28:25 54° SSE
Spot 4 3.9 23:29:25 55° S 23:30:26 75° WSW 23:35:19 10° NNW
Cosmos 1709 Rocket 4.0 23:27:42 35° SSW 23:30:26 79° W 23:36:34 10° N
Cosmos 2221 Rocket 3.5 23:26:30 10° N 23:31:05 85° E 23:31:33 71° SSE
Cosmos 2237 Rocket 3.3 23:31:18 10° NW 23:36:22 34° WSW 23:38:17 27° SW
Cosmos 372 Rocket 3.9 23:36:14 56° S 23:37:21 83° ESE 23:42:37 10° NNE
Cosmos 1900 4.5 23:33:12 10° NW 23:38:03 56° WSW 23:38:38 53° SW
Cosmos 1626 4.4 23:36:48 16° WSW 23:38:27 21° WNW 23:41:22 10° NNW
Cosmos 389 Rocket 3.3 23:35:24 10° N 23:38:11 47° NNE 23:38:11 47° NNE
OAO 2 Rocket 4.0 23:33:54 10° W 23:38:02 41° SW 23:38:02 41° SW
Meteor 1-26 Rocket 4.1 23:39:35 10° N 23:45:15 82° E 23:46:26 58° SSE
Cosmos 1892 4.4 23:49:55 24° NE 23:49:55 24° NE 23:52:00 10° NNE
ATLAS 2AS CENTAUR R/B 3.9 23:42:53 10° WSW 23:50:09 47° NW 23:57:55 10° NNE
H-2A R/B 4.2 23:49:18 10° NE 23:51:48 23° ENE 23:51:48 23° ENE
